Location: Newark
(39.4242°N, 80.8531°W)
Time: 20:52:36
(UTC+00:00)

Envisat - Visible Passes

Search period start: 18 January 2020 00:00
Search period end: 28 January 2020 00:00
Orbit: 764 x 766 km, 98.1° (Epoch: 18 January)

Date Brightness Start Highest point End Pass type
(mag) Time Alt. Az. Time Alt. Az. Time Alt. Az.
18 Jan 5.0 00:06:12 10° SSW 00:10:36 30° W 00:15:02 10° NW visible
18 Jan 6.4 10:39:37 10° ENE 10:40:42 11° E 10:41:48 10° ESE visible
18 Jan 3.4 23:28:39 10° S 23:33:41 68° WSW 23:38:46 10° NNW visible
19 Jan 4.3 11:38:37 10° NNE 11:43:29 45° E 11:48:19 10° S visible
19 Jan 3.1 22:52:03 10° SSE 22:56:59 53° ENE 23:01:55 10° N visible
20 Jan 5.9 00:33:06 10° SW 00:36:18 17° W 00:39:31 10° NW visible
20 Jan 5.8 11:02:47 10° NE 11:06:28 20° E 11:10:09 10° SE visible
20 Jan 4.6 23:54:34 10° SSW 23:59:14 38° W 00:03:58 10° NNW visible
21 Jan 3.2 12:03:54 10° NNE 12:09:01 81° ESE 12:14:05 10° S visible
21 Jan 3.1 23:17:19 10° SSE 23:22:24 86° WSW 23:27:31 10° NNW visible
22 Jan 4.8 11:27:30 10° NNE 11:32:09 35° E 11:36:45 10° SSE visible
23 Jan 5.6 00:21:05 10° SW 00:24:54 21° W 00:28:45 10° NW visible
23 Jan 6.1 10:52:05 10° NE 10:55:05 16° E 10:58:03 10° SE visible
23 Jan 4.1 23:43:01 10° S 23:47:55 48° W 23:52:50 10° NNW visible
24 Jan 3.6 11:52:39 10° NNE 11:57:43 63° E 12:02:44 10° S visible
24 Jan 3.0 23:06:04 10° SSE 23:11:07 75° ENE 23:16:12 10° N visible
25 Jan 6.3 00:48:57 10° WSW 00:50:39 12° W 00:52:22 10° WNW visible
25 Jan 5.3 11:16:28 10° NE 11:20:48 28° E 11:25:05 10° SSE visible
26 Jan 5.2 00:09:16 10° SSW 00:13:31 27° W 00:17:49 10° NW visible
26 Jan 6.3 10:41:48 10° ENE 10:43:40 12° E 10:45:31 10° ESE visible
26 Jan 3.6 23:31:35 10° S 23:36:36 62° W 23:41:38 10° NNW visible
27 Jan 4.1 11:41:28 10° NNE 11:46:24 49° E 11:51:18 10° S visible
